Time,TemperatureF,DewpointF,PressureIn,WindDirection,WindDirectionDegrees,WindSpeedMPH,WindSpeedGustMPH,Humidity,HourlyPrecipIn,Conditions,Clouds,dailyrainin,SoftwareType,DateUTC
2015-05-30 00:08:00,57.5,41.0,29.88,SW,219,0.0,-999.0,55,-99.99,,,0.00,weatherlink.com 1.10,2015-05-30 06:08:00,
2015-05-30 00:23:00,57.3,41.0,29.88,SW,219,0.0,-999.0,54,-99.99,,,0.00,weatherlink.com 1.10,2015-05-30 06:23:00,
2015-05-30 00:39:00,57.1,40.0,29.89,SW,219,0.0,-999.0,53,-99.99,,,0.00,weatherlink.com 1.10,2015-05-30 06:39:00,
2015-05-30 00:54:00,56.7,40.0,29.89,SW,219,0.0,-999.0,53,-99.99,,,0.00,weatherlink.com 1.10,2015-05-30 06:54:00,
2015-05-30 01:09:00,56.2,40.0,29.89,SW,219,0.0,-999.0,54,-99.99,,,0.00,weatherlink.com 1.10,2015-05-30 07:09:00,
2015-05-30 01:24:00,56.2,41.0,29.89,WSW,240,0.0,-999.0,57,-99.99,,,0.00,weatherlink.com 1.10,2015-05-30 07:24:00,
2015-05-30 01:39:00,56.4,42.0,29.89,WSW,240,0.0,-999.0,59,-99.99,,,0.00,weatherlink.com 1.10,2015-05-30 07:39:00,
2015-05-30 01:54:00,57.1,44.0,29.89,WSW,240,0.0,-999.0,61,-99.99,,,0.00,weatherlink.com 1.10,2015-05-30 07:54:00,
2015-05-30 02:09:00,57.7,44.0,29.90,NW,306,0.0,-999.0,61,-99.99,,,0.00,weatherlink.com 1.10,2015-05-30 08:09:00,
2015-05-30 02:24:00,58.9,45.0,29.90,SW,230,0.0,-999.0,60,-99.99,,,0.00,weatherlink.com 1.10,2015-05-30 08:24:00,
2015-05-30 02:39:00,59.8,44.0,29.90,NNE,30,0.0,-999.0,56,-99.99,,,0.00,weatherlink.com 1.10,2015-05-30 08:39:00,
2015-05-30 02:54:00,60.8,44.0,29.90,WSW,251,0.0,-999.0,54,-99.99,,,0.00,weatherlink.com 1.10,2015-05-30 08:54:00,
2015-05-30 03:09:00,61.3,41.0,29.91,WNW,285,0.0,-999.0,47,-99.99,,,0.00,weatherlink.com 1.10,2015-05-30 09:09:00,
2015-05-30 03:24:00,60.9,41.0,29.91,WNW,285,0.0,-999.0,49,-99.99,,,0.00,weatherlink.com 1.10,2015-05-30 09:24:00,
2015-05-30 03:39:00,59.9,42.0,29.91,WNW,285,0.0,-999.0,52,-99.99,,,0.00,weatherlink.com 1.10,2015-05-30 09:39:00,
2015-05-30 03:54:00,58.5,42.0,29.92,WNW,285,0.0,-999.0,55,-99.99,,,0.00,weatherlink.com 1.10,2015-05-30 09:54:00,
2015-05-30 04:09:00,56.9,42.0,29.93,WNW,285,0.0,-999.0,58,-99.99,,,0.00,weatherlink.com 1.10,2015-05-30 10:09:00,
2015-05-30 04:24:00,55.5,42.0,29.93,WNW,285,0.0,-999.0,61,-99.99,,,0.00,weatherlink.com 1.10,2015-05-30 10:24:00,
2015-05-30 04:39:00,54.2,42.0,29.94,WNW,285,0.0,-999.0,64,-99.99,,,0.00,weatherlink.com 1.10,2015-05-30 10:39:00,
2015-05-30 04:54:00,53.1,42.0,29.94,WNW,285,0.0,-999.0,67,-99.99,,,0.00,weatherlink.com 1.10,2015-05-30 10:54:00,
2015-05-30 05:09:00,52.2,42.0,29.95,WNW,285,0.0,-999.0,69,-99.99,,,0.00,weatherlink.com 1.10,2015-05-30 11:09:00,
2015-05-30 05:24:00,51.5,42.0,29.95,WNW,285,0.0,-999.0,71,-99.99,,,0.00,weatherlink.com 1.10,2015-05-30 11:24:00,
2015-05-30 05:39:00,50.9,42.0,29.95,WNW,285,0.0,-999.0,72,-99.99,,,0.00,weatherlink.com 1.10,2015-05-30 11:39:00,
2015-05-30 05:54:00,50.4,42.0,29.96,WNW,285,0.0,-999.0,74,-99.99,,,0.00,weatherlink.com 1.10,2015-05-30 11:54:00,
2015-05-30 06:09:00,50.0,42.0,29.96,WNW,285,0.0,-999.0,75,-99.99,,,0.00,weatherlink.com 1.10,2015-05-30 12:09:00,
2015-05-30 06:39:00,49.4,43.0,29.97,WNW,285,0.0,-999.0,78,-99.99,,,0.00,weatherlink.com 1.10,2015-05-30 12:39:00,
2015-05-30 06:55:00,49.5,44.0,29.98,WNW,285,0.0,-999.0,81,-99.99,,,0.00,weatherlink.com 1.10,2015-05-30 12:55:00,
2015-05-30 07:10:00,50.1,46.0,29.99,WNW,285,0.0,-999.0,84,-99.99,,,0.00,weatherlink.com 1.10,2015-05-30 13:10:00,
2015-05-30 07:25:00,51.4,47.0,29.99,WNW,285,0.0,-999.0,85,-99.99,,,0.00,weatherlink.com 1.10,2015-05-30 13:25:00,
2015-05-30 07:40:00,54.2,48.0,29.99,WNW,285,0.0,-999.0,79,-99.99,,,0.00,weatherlink.com 1.10,2015-05-30 13:40:00,
2015-05-30 08:25:00,62.1,48.0,29.99,WNW,286,0.0,-999.0,61,-99.99,,,0.00,weatherlink.com 1.10,2015-05-30 14:25:00,
2015-05-30 08:40:00,63.6,48.0,30.00,ENE,58,0.0,-999.0,58,-99.99,,,0.00,weatherlink.com 1.10,2015-05-30 14:40:00,
2015-05-30 08:55:00,65.5,49.0,29.99,ENE,58,1.0,-999.0,56,-99.99,,,0.00,weatherlink.com 1.10,2015-05-30 14:55:00,
2015-05-30 09:10:00,68.0,51.0,30.00,NNW,331,2.0,-999.0,54,-99.99,,,0.00,weatherlink.com 1.10,2015-05-30 15:10:00,
2015-05-30 09:25:00,69.7,50.0,29.99,North,9,0.0,-999.0,49,-99.99,,,0.00,weatherlink.com 1.10,2015-05-30 15:25:00,
2015-05-30 09:40:00,71.3,50.0,29.99,South,180,0.0,-999.0,47,-99.99,,,0.00,weatherlink.com 1.10,2015-05-30 15:40:00,
2015-05-30 09:55:00,72.0,49.0,29.99,South,186,3.0,-999.0,45,-99.99,,,0.00,weatherlink.com 1.10,2015-05-30 15:55:00,
2015-05-30 10:10:00,72.3,49.0,29.99,South,179,5.0,-999.0,44,-99.99,,,0.00,weatherlink.com 1.10,2015-05-30 16:10:00,
2015-05-30 17:20:00,80.4,42.0,29.84,SW,229,2.0,-999.0,26,-99.99,,,0.00,weatherlink.com 1.10,2015-05-30 23:20:00,
2015-05-30 17:25:00,80.1,41.0,29.84,SW,229,0.0,-999.0,25,-99.99,,,0.00,weatherlink.com 1.10,2015-05-30 23:25:00,